カタログに戻る

SL-8 R/B

運用中LEO
NORAD 13149·ROCKET BODY·🇷🇺 Russia

打ち上げ Apr 28, 1982 から Plesetsk Cosmodrome

Loading…

次のパス (今後24時間)

TLE

最新Source: Space-Track

元期: Sep 14, 2026, 12:56 UTC

1 13149U 82037B   26257.53917450  .00000120  00000-0  49569-4 0  9994
2 13149  74.0422 180.3084 0014153 275.8693  84.0847 14.36754536321839

AllMySatでSL-8 R/Bをリアルタイム追跡

Download on the App Store